Location: Bonningues
(50.7927°N, 2.0150°E)
Time: 08:22:17
(UTC+00:00)

Cosmos 1666 - Pass Details

Date: 08 August 2020
Orbit: 498 x 520 km, 82.5° (Epoch: 26 September)

Event Time Altitude Azimuth Distance (km) Brightness Sun altitude
Exits shadow 22:36:34 52° 81° (E) 629 2.9 -21.1°
Drops below altitude 10° 22:40:02 10° 19° (NNE) 1,722 6.0 -21.3°
Sets 22:42:11 0° 15° (NNE) 2,614 7.2 -21.4°
